Location: Poughquag
(41.6090°N, 73.6820°W)
Time: 01:36:33
(UTC-04:00)

Transit 2A Rocket - Pass Details

Date: 07 June 2020
Orbit: 584 x 919 km, 66.7° (Epoch: 06 July)

Event Time Altitude Azimuth Distance (km) Brightness Sun altitude
Rises 05:15:39 0° 335° (NNW) 3,513 8.5 -1.6°
Reaches altitude 10° 05:18:24 10° 345° (NNW) 2,595 8.0 -1.2°
Maximum altitude 05:23:55 34° 49° (NE) 1,459 7.5 -0.3°
Drops below altitude 10° 05:29:25 10° 114° (ESE) 2,596 8.3 0.6°
Sets 05:32:09 0° 123° (ESE) 3,514 8.8 1.0°
